| time (UTC) | temp F | wind direction | speed knots | gust knots | rain 1hr in | rain 24hr in | rain mn in | humidity % | barometer mb |
| 20260507070009 | 41 | 302 | 0.9 | 2.6 | 0.00 | 0.59 | 0.00 | 76 | 1011.9 |
| 20260507064601 | 42 | 302 | 2.6 | 3.5 | 0.00 | 0.59 | 0.00 | 76 | 1012.0 |
| 20260507063059 | 42 | 311 | 1.7 | 3.5 | 0.00 | 0.59 | 0.00 | 76 | 1012.2 |
| 20260507061557 | 42 | 311 | 2.6 | 6.1 | 0.00 | 0.59 | 0.00 | 76 | 1012.3 |
| 20260507060104 | 42 | 299 | 1.7 | 4.3 | 0.00 | 0.59 | 0.00 | 75 | 1012.4 |
| 20260507054556 | 43 | 314 | 2.6 | 5.2 | 0.00 | 0.60 | 0.00 | 74 | 1012.3 |
| 20260507053053 | 43 | 304 | 5.2 | 8.7 | 0.00 | 0.60 | 0.00 | 73 | 1012.4 |
| 20260507051549 | 43 | 280 | 6.1 | 10.4 | 0.00 | 0.60 | 0.00 | 73 | 1012.5 |
| 20260507050046 | 43 | 302 | 8.7 | 12.2 | 0.00 | 0.60 | 0.00 | 73 | 1012.6 |
| 20260507044546 | 43 | 307 | 7.8 | 11.3 | 0.00 | 0.60 | 0.00 | 74 | 1012.6 |
| 20260507043041 | 43 | 271 | 3.5 | 7.8 | 0.00 | 0.60 | 0.00 | 76 | 1012.8 |
| 20260507041538 | 44 | 283 | 5.2 | 9.6 | 0.00 | 0.60 | 0.00 | 77 | 1012.4 |
| 20260507040035 | 44 | 284 | 5.2 | 10.4 | 0.00 | 0.60 | 0.00 | 79 | 1012.3 |
| 20260507034550 | 44 | 284 | 3.5 | 7.0 | 0.00 | 0.60 | 0.60 | 80 | 1011.8 |
| 20260507033038 | 44 | 304 | 6.1 | 9.6 | 0.00 | 0.60 | 0.60 | 80 | 1011.8 |
| 20260507031529 | 44 | 295 | 7.0 | 10.4 | 0.00 | 0.60 | 0.60 | 80 | 1011.8 |
| 20260507030029 | 45 | 289 | 7.0 | 11.3 | 0.00 | 0.60 | 0.60 | 80 | 1011.6 |
| 20260507024545 | 45 | 306 | 6.1 | 12.2 | 0.00 | 0.63 | 0.60 | 81 | 1011.7 |
| 20260507023026 | 46 | 312 | 7.0 | 11.3 | 0.00 | 0.63 | 0.60 | 82 | 1011.4 |
| 20260507021524 | 46 | 309 | 8.7 | 12.2 | 0.00 | 0.63 | 0.60 | 82 | 1011.5 |
| 20260507020024 | 47 | 286 | 7.0 | 9.6 | 0.00 | 0.63 | 0.60 | 85 | 1011.6 |
| 20260507014534 | 46 | 286 | 1.7 | 7.0 | 0.00 | 0.64 | 0.60 | 87 | 1011.3 |
| 20260507013022 | 46 | 315 | 2.6 | 4.3 | 0.00 | 0.64 | 0.60 | 87 | 1011.5 |
| 20260507011534 | 46 | 63 | 0.0 | 0.0 | 0.00 | 0.64 | 0.60 | 86 | 1011.5 |
| 20260507010019 | 46 | 63 | 0.0 | 0.0 | 0.00 | 0.64 | 0.60 | 86 | 1011.2 |
| 20260507004517 | 46 | 63 | 0.9 | 1.7 | 0.00 | 0.67 | 0.60 | 86 | 1011.1 |
| 20260507003018 | 46 | 63 | 0.9 | 1.7 | 0.00 | 0.67 | 0.60 | 85 | 1010.9 |
| 20260507001517 | 47 | 63 | 0.0 | 0.0 | 0.00 | 0.67 | 0.60 | 85 | 1010.8 |
| 20260507000014 | 47 | 63 | 0.0 | 2.6 | 0.00 | 0.67 | 0.60 | 84 | 1010.8 |
| 20260506234513 | 47 | 67 | 1.7 | 3.5 | 0.00 | 0.69 | 0.60 | 83 | 1010.5 |
| 20260506233012 | 48 | 70 | 0.9 | 3.5 | 0.00 | 0.69 | 0.60 | 82 | 1010.3 |
| 20260506231511 | 48 | 70 | 0.0 | 1.7 | 0.00 | 0.69 | 0.60 | 81 | 1010.5 |
| 20260506230109 | 48 | 70 | 0.9 | 2.6 | 0.00 | 0.69 | 0.60 | 81 | 1010.3 |
| 20260506224509 | 48 | 70 | 0.9 | 3.5 | 0.00 | 0.69 | 0.60 | 81 | 1010.0 |
| 20260506223008 | 48 | 70 | 2.6 | 4.3 | 0.00 | 0.69 | 0.60 | 81 | 1009.9 |
| 20260506221507 | 48 | 82 | 2.6 | 4.3 | 0.00 | 0.69 | 0.60 | 81 | 1009.7 |
| 20260506220007 | 48 | 54 | 1.7 | 3.5 | 0.00 | 0.69 | 0.60 | 81 | 1010.0 |
| 20260506214510 | 48 | 54 | 1.7 | 5.2 | 0.00 | 0.69 | 0.60 | 81 | 1010.0 |
| 20260506213004 | 48 | 92 | 1.7 | 3.5 | 0.00 | 0.69 | 0.60 | 80 | 1009.8 |
| 20260506211503 | 48 | 331 | 0.9 | 4.3 | 0.00 | 0.69 | 0.60 | 81 | 1009.8 |
| 20260506204616 | 47 | 300 | 5.2 | 7.8 | 0.00 | 0.70 | 0.60 | 82 | 1009.6 |
| 20260506203059 | 47 | 313 | 4.3 | 8.7 | 0.00 | 0.70 | 0.60 | 82 | 1009.5 |
| 20260506201600 | 47 | 331 | 4.3 | 8.7 | 0.00 | 0.70 | 0.60 | 82 | 1009.5 |
| 20260506200057 | 47 | 329 | 6.1 | 9.6 | 0.00 | 0.70 | 0.60 | 83 | 1009.3 |
| 20260506194556 | 47 | 35 | 2.6 | 10.4 | 0.00 | 0.70 | 0.60 | 83 | 1009.1 |
| 20260506193056 | 46 | 360 | 6.1 | 10.4 | 0.00 | 0.70 | 0.60 | 83 | 1008.9 |
| 20260506191557 | 46 | 336 | 3.5 | 7.0 | 0.00 | 0.70 | 0.60 | 84 | 1009.0 |
| 20260506190054 | 46 | 325 | 5.2 | 11.3 | 0.00 | 0.70 | 0.60 | 84 | 1009.0 |
| 20260506184554 | 46 | 340 | 7.8 | 12.2 | 0.00 | 0.70 | 0.60 | 85 | 1008.7 |
| 20260506183056 | 46 | 289 | 3.5 | 10.4 | 0.00 | 0.70 | 0.60 | 85 | 1008.7 |
| 20260506181552 | 46 | 297 | 5.2 | 9.6 | 0.00 | 0.70 | 0.60 | 83 | 1008.6 |
| 20260506180053 | 47 | 294 | 7.0 | 10.4 | 0.00 | 0.70 | 0.60 | 83 | 1008.7 |
| 20260506174559 | 47 | 317 | 6.1 | 9.6 | 0.00 | 0.71 | 0.60 | 84 | 1008.3 |
| 20260506173117 | 47 | 344 | 5.2 | 9.6 | 0.00 | 0.71 | 0.60 | 84 | 1008.0 |
| 20260506171550 | 47 | 338 | 4.3 | 9.6 | 0.00 | 0.71 | 0.60 | 85 | 1008.0 |
| 20260506170049 | 46 | 333 | 6.1 | 8.7 | 0.00 | 0.71 | 0.60 | 87 | 1007.7 |
| 20260506164547 | 46 | 11 | 4.3 | 7.0 | 0.00 | 0.71 | 0.60 | 90 | 1007.8 |
| 20260506163052 | 46 | 316 | 4.3 | 7.8 | 0.01 | 0.71 | 0.60 | 91 | 1007.6 |
| 20260506161547 | 45 | 15 | 4.3 | 7.8 | 0.02 | 0.71 | 0.60 | 91 | 1007.6 |
| 20260506160043 | 45 | 313 | 3.5 | 7.8 | 0.03 | 0.71 | 0.60 | 91 | 1007.7 |
| 20260506154544 | 45 | 5 | 3.5 | 5.2 | 0.03 | 0.71 | 0.60 | 91 | 1007.7 |
| 20260506153044 | 44 | 57 | 1.7 | 4.3 | 0.02 | 0.70 | 0.59 | 91 | 1007.8 |
| 20260506151538 | 44 | 55 | 2.6 | 5.2 | 0.02 | 0.69 | 0.57 | 91 | 1007.8 |
| 20260506150140 | 43 | 46 | 2.6 | 5.2 | 0.02 | 0.68 | 0.56 | 91 | 1007.6 |
| 20260506144555 | 43 | 47 | 2.6 | 6.1 | 0.02 | 0.68 | 0.56 | 90 | 1007.4 |
| 20260506143043 | 43 | 43 | 3.5 | 5.2 | 0.03 | 0.68 | 0.56 | 90 | 1007.3 |
| 20260506141533 | 42 | 21 | 3.5 | 7.8 | 0.03 | 0.67 | 0.56 | 90 | 1007.2 |
| 20260506140136 | 42 | 349 | 3.5 | 8.7 | 0.04 | 0.66 | 0.55 | 90 | 1007.3 |
| 20260506134534 | 42 | 35 | 3.5 | 9.6 | 0.05 | 0.67 | 0.55 | 91 | 1007.4 |
| 20260506133029 | 42 | 348 | 2.6 | 8.7 | 0.06 | 0.66 | 0.54 | 90 | 1007.3 |
| 20260506131534 | 43 | 37 | 3.5 | 9.6 | 0.07 | 0.65 | 0.53 | 90 | 1007.2 |
| 20260506130025 | 42 | 45 | 2.6 | 7.8 | 0.07 | 0.63 | 0.51 | 90 | 1007.3 |
| 20260506124523 | 42 | 35 | 6.1 | 10.4 | 0.09 | 0.62 | 0.50 | 90 | 1007.5 |
| 20260506123033 | 43 | 36 | 3.5 | 8.7 | 0.08 | 0.60 | 0.48 | 90 | 1007.6 |
| 20260506121518 | 43 | 9 | 6.1 | 11.3 | 0.09 | 0.57 | 0.46 | 91 | 1007.3 |
| 20260506120024 | 43 | 26 | 3.5 | 10.4 | 0.09 | 0.56 | 0.44 | 90 | 1007.0 |
| 20260506114519 | 43 | 46 | 4.3 | 11.3 | 0.08 | 0.53 | 0.41 | 90 | 1006.9 |
| 20260506113115 | 43 | 51 | 7.8 | 11.3 | 0.09 | 0.52 | 0.40 | 90 | 1007.1 |
| 20260506111509 | 44 | 38 | 5.2 | 9.6 | 0.10 | 0.49 | 0.37 | 91 | 1007.1 |
| 20260506110008 | 44 | 25 | 6.1 | 11.3 | 0.10 | 0.46 | 0.34 | 90 | 1007.0 |
| 20260506104507 | 44 | 52 | 7.8 | 12.2 | 0.11 | 0.45 | 0.33 | 90 | 1006.9 |
| 20260506103003 | 44 | 340 | 7.0 | 12.2 | 0.11 | 0.43 | 0.31 | 90 | 1007.2 |
| 20260506101601 | 44 | 27 | 3.5 | 11.3 | 0.08 | 0.39 | 0.27 | 91 | 1007.1 |
| 20260506100108 | 45 | 11 | 6.1 | 13.9 | 0.07 | 0.36 | 0.24 | 91 | 1006.8 |
| 20260506094603 | 45 | 36 | 7.8 | 12.2 | 0.10 | 0.34 | 0.22 | 90 | 1006.6 |
| 20260506093052 | 45 | 45 | 8.7 | 13.9 | 0.10 | 0.32 | 0.20 | 90 | 1006.6 |
| 20260506091549 | 46 | 34 | 6.1 | 13.9 | 0.10 | 0.31 | 0.19 | 90 | 1006.7 |
| 20260506090046 | 46 | 67 | 4.3 | 11.3 | 0.11 | 0.28 | 0.17 | 90 | 1007.0 |
| 20260506084546 | 46 | 33 | 3.5 | 13.9 | 0.09 | 0.24 | 0.12 | 90 | 1007.1 |
| 20260506083041 | 47 | 49 | 6.1 | 9.6 | 0.08 | 0.22 | 0.10 | 90 | 1007.1 |
| 20260506081541 | 47 | 319 | 3.5 | 7.8 | 0.08 | 0.21 | 0.09 | 90 | 1007.6 |
| 20260506073023 | 47 | 59 | 0.9 | 3.5 | 0.01 | 0.14 | 0.02 | 90 | 1006.7 |
| 20260506071519 | 47 | 59 | 0.0 | 1.7 | 0.00 | 0.13 | 0.01 | 90 | 1006.9 |